Theta_e
302 306 314 319 320 321 325 325 333 337 333 340 340 337 335 332 334 333 337 336 333 339 339 342 338 334 342 346 341 340 342 343 345 343 345 342 332 333 332 330 331 329 329 329 330 330 328 330 329 329 329 328 328 328 328 328 328 327 327 326 325 325 325 325 324 324 324 324 323 323 323 323 324 323 322 322 322 322 322 321 320 319 319 319 319 319 319 319 319 318 318 318 318 318 318 317 317
302 309 318 320 319 321 326 328 335 337 334 339 337 338 335 330 333 333 336 336 334 337 337 339 337 340 347 345 342 342 342 342 341 339 337 334 333 333 331 331 330 329 329 328 330 330 328 328 329 329 329 329 328 328 328 328 327 327 327 326 326 325 325 325 324 324 325 324 323 323 323 323 323 322 322 323 323 322 321 320 319 318 318 318 318 318 318 318 318 318 318 318 318 317 317 317 317
302 310 318 320 320 322 328 330 335 336 335 339 337 337 333 332 335 332 333 330 333 337 337 338 337 341 343 340 340 339 341 341 338 337 335 334 334 332 331 331 330 330 329 328 330 330 328 328 328 329 329 329 328 328 328 327 327 327 327 326 325 325 325 324 323 324 324 324 323 323 322 323 322 323 323 322 322 320 319 319 319 318 318 318 318 318 317 317 317 317 317 317 317 317 317 317 316
303 310 317 321 324 328 333 331 336 337 336 338 337 337 334 333 332 329 331 327 331 338 338 337 337 337 338 341 339 336 342 343 337 336 336 333 334 333 332 331 330 330 328 328 330 330 329 329 329 329 329 329 328 328 327 326 326 326 325 325 325 325 325 324 323 324 324 324 323 323 323 322 322 323 322 321 320 319 319 318 317 317 317 317 317 317 317 317 316 316 317 316 317 316 316 316 315
305 311 316 321 327 329 330 329 332 334 335 337 338 336 331 330 329 325 326 326 329 339 339 336 338 335 335 340 337 340 345 342 337 335 335 334 334 333 332 331 330 330 329 330 330 330 329 329 329 328 328 328 328 328 326 326 326 325 324 325 325 325 324 324 323 323 323 323 323 323 323 322 322 322 321 319 319 318 318 317 316 317 317 317 317 317 317 316 316 316 316 316 316 316 316 315 315
309 314 318 320 321 323 327 330 332 332 333 334 336 334 326 325 324 321 322 323 327 335 337 335 339 336 337 341 337 340 342 340 339 336 335 334 334 333 332 331 330 330 330 330 329 328 329 329 328 328 328 328 328 327 326 326 326 324 325 325 325 325 324 323 323 323 322 322 323 323 322 322 321 321 320 319 318 318 317 316 316 316 316 316 316 316 316 316 316 316 316 315 316 315 315 315 315
310 317 323 325 323 324 330 332 333 333 331 329 330 330 325 322 318 319 321 322 327 331 333 335 337 336 339 339 337 336 334 336 337 336 335 334 334 333 332 330 330 331 330 329 328 327 328 328 327 328 328 327 328 327 326 326 325 324 325 325 324 325 324 323 323 322 322 322 322 322 322 321 321 320 319 318 318 317 316 316 316 316 315 315 315 316 316 316 316 315 315 315 315 315 315 314 314
313 319 324 331 331 326 330 331 331 331 330 326 326 326 323 319 315 319 322 320 326 330 331 335 336 335 338 337 341 337 331 335 335 336 336 334 334 333 332 330 330 330 330 328 328 328 327 327 327 328 328 327 328 327 326 325 325 324 324 325 324 325 324 323 322 322 321 322 322 322 322 321 320 319 319 318 317 317 316 316 316 315 315 315 315 315 315 315 315 315 315 315 315 315 314 313 313
313 319 322 329 330 326 330 330 329 328 328 326 324 325 321 315 315 320 322 320 322 326 327 332 334 334 338 340 344 337 331 335 335 336 335 334 334 333 332 330 330 329 329 329 329 329 327 328 328 328 327 327 328 327 326 325 324 323 323 324 324 324 323 322 322 322 321 321 322 321 321 321 320 319 318 317 317 316 316 315 315 315 315 315 315 315 315 315 314 314 315 314 315 314 313 313 312
313 318 324 328 326 326 328 327 328 327 327 327 323 323 319 314 318 321 322 321 319 324 326 329 333 334 338 341 343 336 332 335 334 336 335 335 334 333 332 331 330 328 329 330 330 329 328 329 328 327 327 327 327 326 326 325 324 323 323 323 323 323 322 322 322 322 321 321 321 320 320 320 319 318 318 317 316 316 315 315 315 315 315 315 315 315 314 314 314 314 314 314 314 313 313 312 312
317 320 323 324 325 326 325 325 326 328 329 325 320 319 315 313 320 324 320 319 319 325 325 324 330 333 337 342 341 334 330 334 334 336 335 334 334 332 332 331 330 328 329 330 329 329 328 328 328 326 326 327 327 326 326 325 324 324 323 323 323 323 322 321 322 322 321 321 320 320 320 320 319 318 318 317 316 315 315 315 314 314 314 314 315 314 314 314 314 314 314 314 313 313 312 312 311
316 321 325 325 327 327 324 326 325 326 329 323 320 317 311 314 319 319 319 318 320 326 325 318 319 325 337 347 342 332 331 334 334 336 335 334 333 332 331 330 330 329 329 330 328 328 328 328 327 326 326 327 326 326 325 325 324 323 323 323 323 323 322 322 322 322 321 321 320 320 320 319 319 318 317 316 315 315 314 314 314 314 314 314 314 314 314 314 313 313 314 313 313 312 311 311 310
319 322 324 320 322 325 321 325 325 321 324 323 321 315 310 315 316 313 317 317 317 324 323 315 315 325 337 343 337 332 333 334 334 336 335 333 332 331 331 330 330 330 330 329 327 328 328 327 326 326 326 327 326 326 325 324 324 323 323 323 323 323 322 322 322 321 321 320 320 320 320 319 318 317 316 315 315 314 314 314 314 314 314 313 313 313 313 313 313 313 313 312 312 311 310 310 308
320 323 320 313 317 323 319 320 321 317 321 323 317 312 311 315 313 312 315 313 315 319 317 313 319 332 337 338 338 335 334 335 334 334 333 332 332 331 330 330 330 330 329 328 327 328 327 327 326 326 326 327 326 325 325 324 323 323 322 322 322 323 322 322 322 321 321 320 319 319 319 318 317 316 316 315 314 314 314 314 314 313 313 313 312 313 313 313 312 312 312 311 311 310 308 306 302
314 323 323 316 318 320 318 316 315 315 319 320 314 311 312 313 310 311 312 310 313 315 311 312 321 333 335 335 340 334 332 335 334 333 332 331 331 331 330 330 330 329 329 328 328 328 327 327 326 326 327 326 325 325 324 323 323 322 322 322 322 322 322 322 321 320 320 319 318 318 318 317 316 315 315 314 314 313 313 313 313 313 313 312 312 312 313 312 312 312 311 311 310 307 302 299 296
312 323 323 318 319 317 317 316 313 315 320 318 314 312 312 310 307 308 310 308 312 313 309 308 317 330 334 333 335 330 330 335 335 333 331 331 331 330 330 330 330 329 329 329 328 328 327 326 326 326 327 326 325 325 324 323 323 322 322 322 321 321 322 321 321 320 319 318 318 318 317 316 316 315 315 314 313 313 313 312 312 312 312 312 311 312 312 312 311 311 310 310 307 301 297 296 295
313 321 321 316 319 316 317 318 314 315 319 319 316 312 309 309 307 306 307 307 310 313 309 306 312 327 335 333 329 328 331 335 334 332 331 331 331 330 330 330 330 329 329 329 328 327 326 325 326 327 327 326 325 325 323 323 322 322 322 322 321 321 321 321 320 319 318 318 318 317 315 315 315 315 314 313 313 312 312 312 311 311 311 311 311 311 311 311 310 310 309 307 303 297 296 296 295
318 318 314 313 318 318 319 319 316 313 314 317 316 311 308 308 309 307 306 308 309 310 309 307 311 320 327 326 323 327 333 334 333 331 330 330 330 330 330 330 330 329 329 329 328 327 326 325 327 327 326 326 325 324 323 322 322 321 322 321 321 321 321 320 320 319 317 318 318 316 315 315 315 314 313 312 312 312 311 311 311 311 311 310 310 310 310 310 309 308 306 303 298 296 296 295 295
320 314 307 314 319 316 314 313 314 313 310 314 314 310 308 307 308 306 307 309 308 308 309 308 309 313 318 318 316 326 334 334 331 328 329 330 330 330 330 330 330 329 328 328 328 327 326 327 327 327 326 326 324 323 322 322 321 320 321 320 320 321 321 320 319 317 316 317 317 316 315 315 314 313 312 312 312 311 311 311 311 310 310 310 309 309 309 309 307 304 300 297 296 296 295 295 295
312 310 309 317 316 311 309 308 311 313 309 310 311 308 307 309 307 306 307 309 309 309 310 309 309 311 313 312 313 323 332 332 329 327 330 330 329 330 330 330 329 329 329 328 328 327 327 327 327 327 326 325 324 323 322 322 321 319 320 319 319 320 320 319 318 317 316 316 316 314 314 313 313 312 312 312 311 311 311 310 310 310 309 309 308 308 307 306 303 298 295 295 295 295 295 295 294
305 308 313 312 306 306 308 307 312 315 310 308 310 308 309 309 306 306 307 308 310 309 309 309 310 310 311 314 317 322 328 330 329 327 329 329 329 330 329 330 329 329 329 328 328 327 327 327 327 327 326 325 324 322 321 322 321 320 320 319 319 319 319 317 317 318 316 316 315 313 313 313 312 312 312 311 311 311 310 310 310 309 309 307 306 304 303 300 297 294 294 295 294 294 295 294 294
305 310 312 307 303 305 310 309 312 313 309 308 309 309 309 307 305 307 308 308 309 310 310 308 309 309 309 315 316 316 321 326 328 328 328 327 327 329 328 328 328 329 328 328 328 327 327 327 327 326 325 324 323 322 321 321 321 320 320 319 318 318 318 316 316 317 316 315 314 313 313 312 312 312 311 311 310 310 310 310 309 309 308 306 304 301 299 297 294 294 294 294 294 294 294 294 294
308 314 312 310 307 306 311 310 310 310 308 309 309 308 307 307 308 308 308 308 308 310 310 307 306 305 304 308 308 311 317 318 319 325 327 327 326 326 328 328 327 328 328 327 327 327 327 326 326 326 325 324 323 322 321 320 319 320 320 319 318 318 318 317 316 316 315 315 313 313 313 312 311 311 311 310 310 310 310 309 309 308 306 304 303 300 298 295 293 293 293 294 294 294 294 294 294
308 313 313 312 309 308 313 311 310 310 308 309 308 308 308 309 309 308 308 308 308 308 307 305 303 302 301 304 306 308 310 308 308 312 316 323 327 326 327 327 328 327 327 327 327 326 326 326 326 326 325 323 322 321 321 320 319 319 319 318 318 318 318 317 317 315 315 314 313 313 312 311 311 311 311 310 310 310 310 309 309 308 306 304 302 299 297 295 292 292 293 293 294 294 294 293 293
308 312 313 312 310 311 313 310 310 309 308 308 306 309 309 308 308 308 310 309 309 308 306 306 304 304 305 306 307 306 305 303 303 304 305 310 318 325 326 326 327 327 327 327 327 326 326 326 326 325 324 323 322 321 320 319 318 318 318 317 317 317 317 316 315 314 314 314 313 313 312 310 310 310 310 310 310 310 310 309 309 308 306 303 301 299 296 294 293 292 292 293 294 293 293 293 293
308 311 311 310 310 309 310 310 310 309 308 308 307 312 310 308 308 310 314 312 310 309 309 310 309 312 313 310 307 305 306 304 301 303 304 304 307 317 324 325 326 326 327 327 327 327 326 325 325 324 324 323 322 321 320 319 318 318 317 316 316 315 315 315 314 314 314 313 313 313 311 309 310 309 309 310 310 309 309 309 308 308 305 303 300 297 295 293 293 292 292 293 293 293 293 293 293
307 309 309 310 309 308 308 310 311 310 309 308 309 314 312 308 309 312 315 314 311 310 312 311 310 314 314 313 309 303 304 304 302 303 304 303 304 308 314 319 324 325 326 326 326 326 325 325 323 323 323 323 322 320 319 319 318 318 317 316 316 315 315 314 314 314 313 312 312 312 311 309 309 309 308 308 309 309 308 307 306 306 304 301 297 294 293 293 293 292 292 292 292 293 293 292 292
307 308 311 312 312 311 308 310 311 309 309 310 310 312 311 307 309 313 312 312 312 311 313 311 310 312 310 311 309 303 302 303 303 302 302 304 305 305 306 311 318 322 323 324 325 325 325 324 323 323 323 322 321 320 319 319 318 317 317 316 316 315 315 314 314 313 312 312 312 311 311 309 308 308 305 304 304 304 304 303 301 300 299 296 294 293 293 293 292 292 292 292 292 292 292 292 292
308 309 313 315 315 313 310 310 310 307 308 312 311 310 312 311 313 317 312 310 312 311 312 311 310 310 309 309 307 305 303 302 302 302 302 304 306 306 305 306 312 318 320 320 322 324 324 323 322 322 321 320 320 319 318 318 317 317 317 316 315 315 314 314 313 312 312 311 311 310 310 309 306 304 300 297 296 295 297 297 294 294 293 292 292 293 293 292 292 292 291 291 291 292 292 292 291
309 308 313 317 313 311 311 310 310 307 308 312 310 308 314 317 318 318 312 309 311 311 311 310 309 308 308 308 307 306 304 302 302 302 303 305 306 306 305 305 307 311 315 315 315 319 323 323 321 320 319 319 318 318 318 317 316 316 316 316 315 315 314 313 312 312 311 309 308 308 309 307 302 299 295 292 291 291 292 292 292 292 292 292 293 293 292 292 292 291 291 291 291 292 292 291 291
313 309 312 314 309 312 314 309 308 307 309 310 309 309 311 312 315 315 311 309 310 310 309 308 307 307 307 307 307 307 305 302 302 303 304 305 306 307 305 305 305 306 309 309 309 311 318 322 320 318 318 317 317 317 317 316 316 316 316 315 315 314 313 313 311 310 308 304 303 304 304 303 299 296 293 291 291 291 292 292 292 292 292 293 293 293 293 293 293 293 292 292 292 293 292 292 292
313 308 311 312 307 310 311 307 308 307 309 309 308 310 311 309 311 312 309 309 309 308 307 307 307 307 307 307 306 307 306 303 303 304 305 305 306 306 305 305 304 305 307 307 307 307 312 319 320 317 315 315 315 315 316 315 316 316 315 315 314 313 310 309 306 304 302 300 300 300 300 298 295 294 292 292 292 292 292 292 292 292 293 293 293 293 293 294 294 294 294 293 293 294 293 293 293
313 308 309 313 309 308 306 308 310 308 309 309 308 310 310 309 310 310 308 308 308 308 307 306 307 307 307 307 307 307 307 305 304 304 304 305 306 306 306 305 304 305 307 308 308 306 309 317 320 318 316 313 312 312 313 314 315 316 315 314 313 309 305 304 302 300 300 300 299 299 298 295 292 292 292 293 293 292 292 293 292 292 293 293 293 293 293 294 295 295 295 294 294 294 294 294 294
314 310 311 312 309 307 308 309 308 306 308 308 308 308 308 308 307 307 307 306 307 308 307 307 307 307 307 307 307 307 307 307 306 304 304 305 305 306 306 305 305 304 306 309 308 307 311 316 318 318 317 315 312 310 310 312 314 314 314 312 310 306 303 302 301 300 300 298 297 297 296 293 291 292 293 294 294 293 293 292 292 292 292 293 293 293 293 294 295 295 295 294 293 293 294 294 294
311 312 311 312 308 307 308 308 307 306 308 307 307 308 307 307 306 305 306 305 307 307 307 307 307 307 309 308 308 308 307 307 306 304 304 305 305 305 305 305 305 304 307 311 311 309 312 315 317 316 316 315 313 310 309 310 311 311 311 309 305 302 301 301 301 301 299 297 295 295 295 293 293 294 294 295 295 294 293 292 292 292 292 292 293 292 292 293 294 295 294 294 293 293 294 294 294
310 310 309 310 309 308 306 306 307 305 307 309 308 308 308 306 305 305 305 304 305 306 307 308 309 310 311 310 309 307 307 307 305 304 304 304 304 304 304 305 304 305 308 310 311 311 313 316 316 315 314 313 312 310 309 307 307 308 308 305 302 300 300 300 301 301 300 298 296 296 295 294 294 294 295 295 294 293 292 292 292 291 292 292 293 293 292 293 293 294 294 294 294 293 294 294 294
309 310 310 309 308 307 305 305 307 305 308 311 309 308 307 306 306 305 304 305 306 308 309 311 312 312 311 310 309 308 307 307 304 303 304 303 304 304 304 304 303 307 310 310 311 313 314 316 315 313 312 312 311 310 309 308 307 306 304 302 300 300 300 300 300 300 300 299 298 299 298 296 295 295 295 294 293 293 292 292 291 291 292 293 293 293 293 293 293 294 294 294 294 294 294 294 294
310 310 309 308 306 306 305 303 305 305 306 308 307 307 307 305 305 304 305 307 310 311 311 312 313 312 310 309 309 308 307 306 304 303 303 303 303 303 303 303 304 308 312 312 313 314 315 315 314 314 312 311 311 310 310 308 307 305 302 300 300 300 300 301 301 300 301 300 299 299 298 297 296 295 294 293 292 292 292 292 292 293 294 294 294 294 294 294 294 294 294 295 294 294 294 294 294
308 308 307 308 308 307 306 304 305 306 306 308 307 307 307 305 305 306 309 311 311 310 310 311 311 310 310 310 308 307 308 307 306 305 303 302 303 302 303 306 308 311 313 314 314 315 314 313 312 312 311 310 310 309 308 307 305 303 301 300 301 300 299 300 300 300 300 300 299 299 298 297 295 294 294 292 292 292 292 294 295 296 296 295 295 295 295 294 293 294 294 295 295 294 294 294 294
308 306 306 308 308 306 307 307 306 305 305 307 307 306 305 306 309 311 313 313 311 311 312 312 310 310 310 310 308 308 308 307 307 307 305 302 302 303 306 310 313 314 314 314 315 314 312 311 310 310 309 309 309 308 307 305 302 301 300 300 300 300 298 298 298 298 298 299 298 297 296 295 294 294 293 293 293 294 294 297 299 299 297 296 296 295 294 293 293 294 294 295 295 295 294 294 294
311 307 307 310 307 305 307 306 304 305 305 304 305 308 311 311 311 312 313 313 312 311 312 313 312 310 309 309 308 308 308 307 307 307 306 303 302 304 307 313 316 315 314 314 314 314 312 311 310 308 307 307 307 307 306 305 302 300 299 299 298 298 297 297 297 297 297 298 298 297 296 295 294 293 293 294 295 297 298 299 300 299 299 298 297 295 294 293 293 294 294 295 295 295 295 294 294
311 309 309 310 306 306 306 305 305 310 312 306 304 311 318 314 310 311 313 314 313 309 310 312 311 310 309 308 307 307 307 307 307 307 306 303 301 303 308 313 317 315 314 314 314 314 313 311 308 307 306 305 305 305 305 305 303 301 301 299 298 297 296 296 297 298 298 298 299 298 297 295 294 294 295 297 298 298 299 299 299 298 298 299 297 296 295 293 293 293 294 294 294 294 294 293 293
310 309 308 307 305 305 306 305 307 312 313 307 304 310 314 311 309 311 313 313 311 308 309 311 310 309 309 308 306 306 306 306 307 307 306 304 302 304 308 313 316 315 313 313 313 312 311 310 308 306 305 304 303 303 303 304 303 302 302 301 300 298 296 296 297 299 299 299 299 298 297 296 295 296 297 298 297 298 299 298 298 297 297 297 296 295 294 293 293 293 293 293 293 294 293 292 293
311 307 304 306 305 305 306 304 306 308 307 307 307 308 309 309 309 309 310 310 309 309 311 310 309 309 308 307 306 306 306 306 306 306 307 305 303 304 308 314 316 315 313 312 311 311 310 308 307 306 304 304 303 302 302 303 303 302 301 300 299 299 298 297 298 299 299 299 298 297 297 297 297 297 297 296 295 296 297 297 297 297 296 295 294 293 293 294 294 293 293 293 293 293 293 293 293
311 307 303 305 304 304 305 304 305 303 304 312 310 305 308 311 311 308 307 309 309 310 309 307 308 309 307 306 306 305 305 306 306 305 306 305 303 304 308 314 316 314 313 311 311 310 309 308 306 305 304 303 302 302 301 301 302 301 300 299 299 298 299 298 299 299 298 297 296 296 297 297 297 296 297 296 294 295 296 297 297 295 294 293 293 293 293 293 293 293 293 294 294 294 294 294 294
308 305 304 305 303 303 302 301 306 304 307 317 311 305 309 311 312 309 308 310 309 307 305 306 308 308 307 306 306 305 305 305 305 305 305 304 303 304 307 313 316 314 312 311 310 309 307 306 305 304 303 303 302 301 301 301 300 300 300 299 299 298 298 298 298 298 297 296 296 296 296 297 297 296 297 297 297 297 297 297 296 294 292 291 292 292 292 293 293 293 294 294 295 295 294 295 294
307 306 307 307 304 303 301 300 303 307 315 316 308 306 307 310 315 314 310 309 306 304 304 306 308 307 306 306 305 305 305 305 304 305 305 305 305 304 308 314 315 313 311 310 309 308 306 305 304 304 303 302 302 301 301 300 300 300 300 300 299 298 298 299 298 296 296 296 296 297 297 296 297 297 297 298 298 299 298 296 295 293 291 291 292 292 292 293 293 294 294 294 295 295 295 294 294
306 308 309 309 310 308 306 307 307 312 320 312 303 304 304 310 318 314 310 308 304 304 306 307 308 307 305 305 305 305 305 305 304 305 306 305 305 305 309 314 314 312 310 309 308 307 305 304 303 303 302 302 301 301 300 300 300 300 300 300 299 299 300 300 299 297 297 297 297 298 298 296 297 297 297 298 298 299 298 296 294 292 291 291 291 292 293 294 294 294 295 296 296 296 294 294 294
307 311 309 309 317 315 311 315 315 317 317 307 302 305 306 310 314 310 309 306 304 305 307 308 308 306 305 304 304 304 304 305 304 305 306 305 305 307 311 313 311 310 309 308 307 306 305 304 303 302 301 301 301 300 300 300 299 299 299 299 299 299 300 300 299 299 299 299 300 301 299 298 299 299 299 299 299 299 297 295 294 292 291 291 291 292 293 294 295 296 296 297 297 295 294 293 293
309 310 307 309 317 317 315 318 315 313 312 306 303 306 309 312 314 312 309 305 306 308 308 308 307 305 305 304 304 304 305 306 305 305 306 305 305 309 312 311 310 309 308 307 306 305 304 303 303 302 301 300 300 300 300 299 299 299 299 299 299 299 300 299 300 301 301 301 303 303 303 303 303 302 302 301 300 299 297 295 294 293 292 291 291 291 293 294 295 296 296 296 296 294 293 293 292
308 306 304 309 314 314 316 318 315 312 310 306 304 308 314 315 314 312 308 306 309 309 306 306 306 304 304 303 303 304 306 306 306 306 307 307 308 311 311 310 309 309 307 306 305 304 304 303 302 302 301 300 300 299 299 299 299 299 299 299 299 299 299 299 299 300 301 303 304 304 304 305 305 304 303 302 300 299 297 295 294 293 293 293 292 292 293 294 295 296 296 296 296 295 293 293 291
305 303 304 307 309 311 312 312 312 308 307 306 306 311 316 314 312 310 309 311 310 307 305 304 304 303 302 302 302 303 305 306 306 308 309 309 310 311 310 309 309 308 307 306 305 304 303 303 302 302 301 300 300 299 299 299 299 299 299 299 299 299 299 299 299 300 301 304 305 305 305 305 305 304 303 302 301 299 298 297 296 296 295 293 292 293 292 293 295 296 296 296 296 295 294 292 291
305 305 306 303 301 308 311 308 306 304 307 309 308 311 313 311 313 312 311 313 308 304 304 303 303 302 302 302 302 303 305 306 307 309 310 310 310 310 309 309 308 307 306 305 304 304 303 302 302 302 301 300 300 300 299 299 299 299 299 299 299 299 299 300 300 300 302 303 304 304 305 305 305 304 303 302 301 300 299 298 297 297 294 291 290 292 291 292 294 295 296 296 296 295 294 292 291
308 307 306 301 299 305 307 306 308 307 309 310 309 311 312 311 314 313 312 312 307 305 304 303 303 302 302 302 301 303 305 307 308 308 309 310 308 308 308 308 307 306 306 305 304 304 303 302 302 301 301 300 300 300 300 299 299 299 299 299 299 299 299 300 300 301 302 303 303 304 304 305 305 304 303 302 301 300 299 298 297 294 291 289 289 290 291 292 294 295 296 296 296 295 294 293 292
304 305 302 300 301 305 305 306 310 310 309 310 310 311 311 314 315 312 312 311 306 304 303 302 302 302 302 302 301 303 306 308 308 307 308 309 307 307 307 306 306 306 305 304 304 303 303 302 302 301 301 300 300 300 300 299 299 299 300 299 299 299 299 300 300 301 302 302 303 304 305 305 305 304 304 303 302 300 300 298 294 290 288 288 288 289 289 291 293 295 296 296 295 295 294 294 294
301 305 304 301 301 304 305 304 308 310 310 310 311 311 313 316 317 313 312 311 306 304 303 302 302 301 301 301 301 303 305 308 307 306 307 307 306 306 306 306 305 305 304 304 303 303 303 302 302 301 301 301 300 300 300 299 299 299 300 299 299 299 299 300 300 302 302 302 303 305 305 305 305 305 304 303 302 301 300 298 295 290 288 287 287 288 289 290 292 294 296 295 295 295 295 295 295
304 307 305 303 303 303 302 301 304 308 311 311 310 310 311 313 315 314 311 309 306 304 304 302 301 301 301 301 302 304 306 307 307 306 306 306 305 305 305 305 304 304 304 304 303 303 302 302 302 301 302 301 300 300 300 300 300 300 300 300 300 300 300 300 301 302 302 302 303 305 305 306 305 305 304 303 302 301 300 299 297 293 290 288 288 288 288 289 291 293 294 295 295 295 295 295 295
308 307 305 306 306 304 302 302 303 304 307 310 308 308 310 310 315 316 311 308 306 305 304 302 300 300 300 301 303 305 307 307 306 306 306 305 305 305 304 304 303 303 303 303 303 303 302 302 302 302 302 301 301 300 300 300 300 300 300 300 300 300 300 300 301 302 302 302 303 305 305 305 305 305 304 303 302 301 300 298 296 294 291 290 289 288 289 289 290 291 293 294 295 295 295 295 295
Wind_Speed
9 7 6 4 3 2 3 3 1 2 1 1 2 1 3 3 1 1 2 1 1 2 3 3 5 5 3 2 6 6 4 5 4 4 2 2 4 16 24 18 24 32 31 29 26 25 23 22 21 20 19 18 18 17 17 17 17 17 18 17 17 16 15 15 15 15 15 15 15 16 16 16 17 17 16 16 16 16 16 16 16 16 16 17 17 17 17 17 17 17 17 17 17 16 16 16 16
6 5 4 2 3 3 1 2 2 2 2 2 2 3 3 2 1 4 5 1 1 3 1 3 5 3 3 2 4 4 3 4 3 3 1 4 8 19 22 17 29 34 32 31 27 26 23 22 21 21 20 19 19 18 17 17 17 17 18 18 18 17 16 16 16 15 15 15 15 15 16 16 16 16 16 16 16 16 15 15 15 16 16 17 17 17 17 17 17 17 17 17 16 16 16 15 15
4 3 2 3 3 3 1 3 1 0 1 4 3 3 2 1 3 4 3 3 4 1 3 3 3 2 4 2 2 3 3 2 3 4 1 10 11 18 23 18 31 34 32 31 29 28 24 24 22 22 20 19 20 18 18 17 17 17 17 18 18 17 17 16 16 16 16 16 15 15 16 16 16 16 16 15 15 15 15 15 15 16 16 17 17 17 17 17 17 17 16 16 16 15 15 15 15
3 2 2 2 2 3 3 2 1 3 2 3 3 4 2 1 3 5 4 5 3 3 2 3 1 1 4 3 3 0 3 2 5 6 4 14 13 20 26 21 33 34 31 31 30 29 25 25 24 23 21 20 20 19 19 18 18 18 17 17 18 18 17 17 16 16 16 16 16 16 16 16 16 16 15 15 15 15 15 15 16 16 16 17 17 17 17 17 17 16 16 16 15 15 15 15 15
2 2 1 2 2 1 2 1 1 3 4 3 2 3 2 2 4 6 6 7 4 4 4 4 2 2 2 4 2 1 4 1 5 9 7 15 15 21 27 25 35 35 32 31 31 29 26 26 25 24 22 21 20 19 19 18 19 18 18 17 18 18 17 17 17 17 16 16 16 16 16 16 16 15 15 15 15 15 15 15 16 16 16 17 17 17 17 17 16 16 16 15 15 15 15 15 15
2 4 3 3 3 0 2 1 1 2 4 3 2 2 1 2 3 6 7 8 6 5 4 4 2 0 1 3 2 3 4 2 6 10 9 15 16 23 27 29 36 34 32 32 31 29 27 27 25 24 22 21 20 19 19 19 18 18 19 18 18 18 18 17 17 17 16 16 16 16 17 16 15 15 15 15 15 15 15 15 15 15 16 16 16 16 16 16 15 15 15 15 14 14 14 14 15
2 2 4 4 2 2 2 2 3 3 4 4 2 3 3 4 4 5 6 7 5 2 3 4 1 2 2 2 1 3 2 2 4 8 12 15 19 25 28 32 34 32 33 32 30 29 28 27 25 24 23 21 21 20 19 19 19 19 20 19 18 17 18 18 17 17 17 17 17 16 17 16 16 15 15 15 15 15 15 15 15 15 16 16 16 16 16 15 15 15 15 15 14 14 14 14 14
4 1 1 3 1 3 2 2 3 3 3 3 3 3 3 5 5 4 5 4 4 4 2 4 1 1 4 1 1 3 1 3 2 5 13 16 23 28 30 34 34 33 33 32 30 29 28 27 25 25 23 22 21 20 19 19 19 19 19 19 19 17 18 18 18 17 17 17 17 17 17 17 16 16 15 15 15 15 15 15 15 15 15 15 15 15 15 15 15 15 15 15 13 14 14 14 14
5 3 1 2 2 1 1 3 3 3 4 4 4 2 3 5 4 3 4 3 4 5 5 4 4 3 3 1 3 4 2 4 3 5 13 19 26 31 33 36 36 35 34 32 31 30 28 27 27 25 23 22 21 21 20 19 19 19 18 18 19 18 18 18 18 17 17 17 17 17 17 17 16 16 15 15 15 15 15 15 15 15 15 15 15 15 15 15 15 15 15 14 13 13 13 14 14
4 4 2 2 2 1 4 3 2 3 4 4 4 4 3 5 3 2 4 4 4 4 7 4 5 3 2 1 4 2 3 4 5 8 16 23 29 33 35 37 37 37 34 33 32 31 29 27 28 26 24 23 21 21 20 19 19 19 19 19 19 19 19 18 18 17 17 17 17 17 17 17 16 16 15 15 15 15 15 14 15 14 14 15 14 15 15 15 15 15 15 14 13 13 13 14 14
3 3 1 2 2 2 4 4 3 4 5 4 4 3 2 5 3 2 4 5 4 4 6 5 1 2 3 2 3 2 3 4 9 13 20 26 31 34 35 36 36 37 36 34 33 31 29 28 28 25 23 22 22 21 21 21 20 20 20 19 19 18 18 18 18 18 17 17 17 17 17 17 16 16 16 15 15 15 15 14 14 14 14 14 14 15 15 15 15 15 14 13 13 13 13 14 14
3 2 3 2 2 3 4 3 4 4 6 5 3 2 4 5 3 3 6 5 5 5 4 5 2 3 3 3 3 4 5 6 11 13 22 28 32 33 33 34 35 35 35 35 33 32 29 28 28 25 24 23 23 22 21 21 21 20 20 19 19 19 19 19 18 18 18 18 17 17 17 17 17 17 16 16 15 15 14 14 14 14 14 14 14 14 15 15 14 14 14 13 13 13 13 13 13
3 2 4 2 2 2 2 2 4 4 4 3 4 4 5 3 3 3 5 5 5 3 3 5 3 2 2 3 3 4 5 5 11 14 23 28 30 30 29 30 32 34 34 34 32 32 30 29 28 26 25 24 23 22 22 22 21 21 21 20 19 19 19 19 19 18 18 18 18 18 18 17 17 17 16 15 15 15 14 14 14 14 14 14 14 14 15 15 14 14 14 13 13 13 13 13 12
2 3 4 2 1 1 2 2 3 2 4 4 3 5 5 1 0 3 2 7 8 1 5 7 1 1 1 3 3 2 4 5 10 16 23 27 28 27 27 28 30 31 33 33 32 32 32 31 29 27 26 25 24 23 22 22 22 21 21 21 19 19 19 19 19 19 18 19 19 18 18 18 18 17 16 15 15 15 15 14 14 14 14 14 14 14 15 15 14 14 14 13 13 13 12 12 11
2 2 4 2 1 2 2 2 1 1 4 4 2 5 5 3 1 2 2 3 7 3 6 6 1 1 1 1 3 3 6 6 11 17 23 24 24 25 26 27 28 29 31 33 33 33 32 31 30 27 26 26 25 24 23 22 22 22 21 22 21 19 20 20 20 20 19 19 19 18 18 18 17 16 16 16 16 15 14 14 14 14 14 14 14 14 15 15 15 14 14 14 13 12 11 10 10
3 3 4 1 1 1 2 2 1 1 4 4 3 5 4 5 2 2 2 1 6 4 5 4 2 2 2 2 4 8 10 8 13 18 22 22 21 23 24 26 27 28 29 31 32 34 33 31 30 29 28 27 27 26 24 23 23 22 21 21 22 20 20 20 21 21 20 19 19 18 18 17 16 17 16 16 16 14 15 15 14 14 14 14 14 14 15 15 15 15 14 14 13 11 10 10 10
3 4 4 1 1 1 3 3 2 2 4 5 4 5 3 7 3 2 4 2 4 5 4 5 4 1 3 3 7 13 8 10 16 19 21 21 21 20 22 25 26 26 28 30 31 33 33 32 32 31 30 28 27 27 25 25 24 23 22 22 22 22 21 21 22 22 20 20 20 20 20 18 19 19 18 16 15 15 16 15 14 14 14 14 14 14 15 15 15 15 15 13 11 10 10 10 10
4 3 2 2 2 3 4 4 4 2 3 5 4 3 0 6 6 4 5 1 2 7 8 5 4 5 6 4 10 11 4 13 18 19 17 17 19 19 22 25 26 27 28 29 30 32 33 34 34 33 32 31 29 28 26 25 25 24 23 23 24 24 24 23 23 23 22 22 21 21 22 21 21 20 19 17 17 16 16 16 15 15 14 14 14 14 15 15 15 14 13 11 10 8 8 8 9
3 3 1 3 4 4 4 4 3 2 3 5 4 2 0 4 5 4 5 7 8 9 10 5 6 8 7 5 11 10 4 12 13 15 16 16 16 19 21 23 26 28 30 32 31 32 33 34 35 34 34 33 31 30 27 26 26 25 25 25 25 25 25 25 24 23 22 23 23 22 23 22 21 20 19 19 18 16 16 16 16 15 15 15 15 15 15 15 14 12 10 9 8 8 7 7 7
2 3 0 5 4 4 4 3 5 4 3 4 5 1 1 5 3 2 4 8 10 9 10 7 8 9 6 7 10 10 5 7 11 16 19 19 20 21 21 22 25 29 32 33 32 32 33 34 35 34 34 34 33 31 28 27 27 27 27 27 26 25 25 24 23 23 23 24 24 23 21 21 21 20 20 20 18 18 18 18 17 17 17 17 17 17 17 15 12 11 9 8 8 8 7 7 6
1 2 3 5 2 2 4 4 5 5 2 3 4 4 6 5 1 1 1 6 10 9 9 8 10 11 7 7 8 8 9 7 12 16 14 14 18 19 20 23 25 27 29 29 31 33 33 34 35 34 34 35 34 33 31 29 29 29 29 28 27 26 25 24 23 24 24 25 24 22 21 21 21 21 20 20 19 19 19 19 18 18 18 18 17 17 16 13 11 9 9 9 9 8 8 7 6
0 2 4 4 2 2 5 3 3 3 2 3 4 6 6 3 2 3 4 5 8 8 7 6 7 9 7 5 7 7 8 9 9 13 13 13 14 13 14 17 18 19 24 28 30 33 33 35 36 35 35 36 36 35 34 31 28 29 30 29 29 28 26 25 25 25 25 25 24 22 23 23 21 20 19 19 19 19 19 19 18 18 18 17 15 14 12 10 10 10 10 10 9 9 8 7 6
1 3 2 3 4 3 5 2 2 2 2 6 4 4 4 4 6 4 7 12 12 11 9 5 7 9 8 6 6 6 5 8 8 9 13 15 15 15 15 16 18 18 23 28 29 31 32 34 37 37 37 36 36 35 35 33 29 28 30 30 29 29 28 27 26 26 25 24 23 23 24 23 22 21 20 20 20 20 19 19 18 17 17 16 14 12 11 9 9 10 10 10 10 9 8 8 7
3 2 5 3 3 5 5 3 4 3 5 9 3 4 6 6 7 2 6 14 14 14 10 7 11 12 9 7 7 7 7 9 13 14 13 13 15 18 19 19 21 22 24 27 29 32 34 35 37 38 38 38 37 36 36 35 32 29 30 30 29 29 28 28 27 25 24 22 22 24 23 22 22 22 22 21 20 19 19 18 17 16 16 15 13 11 9 9 10 10 9 10 9 9 8 8 8
4 4 4 3 3 6 7 6 7 7 7 7 3 6 10 8 4 4 12 16 12 10 9 7 9 10 9 7 8 8 8 10 15 20 17 14 15 17 18 20 19 19 24 28 31 33 35 38 38 39 39 39 39 38 37 36 33 30 30 30 29 29 28 28 27 25 24 22 22 23 21 21 22 22 22 22 21 20 19 18 17 16 16 15 13 11 9 8 9 10 9 10 9 9 8 8 7
3 4 4 5 7 7 7 7 6 6 5 2 2 8 9 5 2 6 14 15 8 5 5 4 4 7 8 7 8 7 7 9 14 19 20 17 14 15 17 20 20 20 25 30 34 36 37 38 38 40 41 41 41 39 38 37 34 32 31 30 29 28 28 27 26 24 23 22 22 21 19 19 20 21 21 22 22 21 20 19 17 16 15 14 12 10 9 8 8 9 9 10 10 9 8 7 7
3 3 5 7 9 8 4 4 5 4 3 2 3 8 8 3 1 5 11 7 1 4 5 4 3 6 8 7 8 7 6 11 15 16 17 17 13 16 18 19 20 19 22 25 28 33 35 36 38 41 43 43 42 41 40 38 36 36 33 31 30 28 28 26 25 24 23 22 21 20 19 18 18 18 19 21 22 21 20 19 17 16 14 13 11 10 9 8 8 8 9 9 10 10 9 8 6
1 2 6 8 8 7 2 1 4 4 2 4 5 8 7 0 1 8 12 3 5 6 8 7 5 6 7 8 9 7 8 14 16 11 13 16 15 17 20 21 20 15 16 18 21 28 33 35 37 40 43 42 42 42 41 41 39 38 35 33 31 29 28 27 25 24 23 22 21 20 19 18 17 17 17 19 21 20 20 19 17 15 14 12 11 9 9 9 9 9 9 10 10 9 9 9 7
1 3 4 8 7 6 4 2 2 5 3 4 4 7 6 3 6 13 11 5 6 7 9 9 8 7 7 7 7 7 10 13 12 11 17 19 17 18 21 23 23 20 18 13 13 21 30 35 36 39 41 41 43 42 41 41 40 39 37 34 32 30 28 27 25 24 22 21 20 19 19 17 17 17 17 18 19 18 18 18 16 14 13 12 11 10 10 10 10 11 11 10 10 9 9 9 8
1 3 3 5 8 5 3 2 4 7 3 0 1 5 7 5 9 13 8 5 7 7 8 9 9 8 7 7 6 7 10 12 11 15 22 21 18 20 22 24 24 26 26 21 15 13 20 29 33 36 39 40 40 40 40 40 38 38 37 35 33 30 27 26 24 23 21 20 19 19 19 17 16 16 17 17 17 16 16 16 14 14 13 12 11 10 10 11 11 11 11 11 10 9 8 8 8
2 2 2 3 5 4 5 4 4 6 2 2 3 3 9 8 10 13 7 5 6 7 8 9 9 9 7 7 7 8 9 12 16 20 23 22 21 21 23 25 24 27 28 28 26 17 15 20 26 30 35 39 39 40 41 40 40 38 37 36 33 30 27 25 24 22 21 19 19 19 18 17 17 17 17 16 16 15 15 14 13 13 13 12 11 10 10 10 10 10 10 10 10 9 8 8 7
3 3 3 3 1 5 9 6 1 2 3 2 3 4 9 9 10 12 7 5 7 10 11 10 10 9 8 7 7 7 9 13 18 21 23 24 24 24 24 25 25 27 28 28 28 25 21 20 22 24 27 31 35 39 40 40 41 38 36 35 33 31 28 25 23 22 21 20 19 18 16 16 17 17 16 15 14 14 13 13 13 12 12 12 11 10 10 11 10 10 9 9 9 9 9 8 8
4 3 4 5 2 5 8 5 0 1 2 2 1 5 8 8 10 12 10 8 8 10 12 11 9 9 8 6 6 6 7 11 14 18 24 25 25 25 24 25 25 27 29 28 27 28 27 25 24 24 24 24 26 31 37 39 39 38 36 34 31 30 29 26 24 22 20 18 18 17 16 15 16 17 16 14 13 13 13 12 12 12 12 11 10 10 11 11 11 10 10 9 7 7 9 8 8
4 3 2 5 3 4 6 5 4 4 1 3 3 5 10 14 14 15 14 10 7 9 11 10 8 8 7 5 6 6 7 8 10 16 24 25 26 26 24 24 25 27 28 28 27 27 28 29 29 27 29 30 27 26 32 37 38 37 35 32 29 28 28 26 24 22 19 17 17 17 16 15 16 16 15 14 13 13 12 12 11 12 11 11 10 10 11 11 11 10 10 10 8 7 7 7 7
3 3 3 5 4 4 6 7 4 5 3 5 5 6 12 17 15 14 14 8 6 9 9 8 8 7 7 6 5 6 7 8 10 18 24 25 25 24 23 23 24 27 27 26 26 26 28 30 31 31 33 36 34 29 30 34 37 36 34 31 28 27 27 25 23 21 19 18 18 17 16 16 15 15 15 14 13 13 12 12 12 11 11 11 10 10 11 12 12 11 10 10 9 8 7 6 6
5 4 3 5 7 6 8 9 4 4 5 7 6 8 12 16 15 14 14 8 5 9 8 7 7 6 6 5 5 6 7 7 13 20 24 24 23 22 21 21 23 26 25 25 26 27 28 29 30 32 34 37 37 35 32 32 34 35 33 32 29 28 27 25 23 21 19 19 19 18 17 16 14 13 14 15 14 13 13 12 12 12 11 11 10 10 10 11 12 12 11 10 10 10 9 8 7
4 3 3 5 7 9 9 7 4 2 3 6 5 7 13 15 14 14 12 8 6 8 7 6 6 5 6 5 6 7 7 8 14 21 23 22 20 20 19 20 21 21 21 22 25 27 28 31 33 33 35 37 39 39 38 36 35 36 35 34 33 30 27 25 23 22 20 19 19 18 17 16 15 14 14 15 14 14 13 13 13 13 12 11 10 9 8 9 11 11 11 10 10 10 11 10 9
3 2 3 5 5 9 10 5 3 3 3 6 6 8 14 14 13 13 8 6 7 7 6 6 7 6 6 6 7 8 7 8 11 15 19 20 16 18 19 19 19 19 20 23 26 29 31 33 35 36 36 38 40 42 43 40 38 38 37 36 35 32 29 27 26 23 21 20 19 18 18 17 17 15 14 15 15 14 13 13 13 13 12 11 10 9 7 9 11 12 12 12 11 11 11 11 12
2 2 1 4 4 6 9 3 1 2 2 5 7 7 13 14 11 11 7 5 7 7 6 6 6 6 7 7 7 7 7 9 9 10 14 18 16 15 16 16 18 20 22 25 28 30 32 33 33 36 39 40 41 42 43 40 37 35 34 34 34 32 29 28 26 25 23 21 20 19 18 18 17 17 16 16 16 15 14 14 14 13 12 10 9 8 8 10 13 13 13 13 12 12 11 11 13
3 3 1 5 4 2 5 3 2 6 3 4 7 8 10 9 6 8 7 6 6 7 7 7 6 7 8 7 6 7 8 9 10 9 10 13 15 12 13 14 17 19 21 25 28 30 32 32 33 36 39 41 42 41 40 38 35 31 30 31 32 30 29 27 25 24 23 22 21 21 20 19 18 18 17 17 17 16 16 15 14 14 12 11 10 8 9 12 13 13 14 14 13 12 11 11 14
3 5 4 5 4 2 5 5 9 9 2 1 7 7 5 3 4 7 6 3 5 5 4 7 7 6 7 6 7 7 7 8 9 10 9 9 12 11 12 15 17 20 22 25 29 31 33 33 34 36 37 38 40 41 40 38 36 33 30 29 28 26 26 27 26 26 25 24 24 24 23 22 21 20 18 17 16 16 16 15 14 13 12 12 11 8 8 12 14 14 14 14 13 12 10 11 13
5 4 7 7 5 5 6 7 9 6 3 4 6 5 5 4 4 7 5 5 7 6 4 8 8 6 6 6 7 7 7 7 8 9 9 8 10 11 12 16 19 21 24 28 30 33 33 33 34 35 36 36 37 39 41 41 40 38 37 35 32 29 29 30 31 31 29 27 26 25 24 23 23 21 19 17 16 16 16 15 14 12 12 11 9 8 9 12 14 14 13 13 13 12 10 11 12
5 3 5 5 5 6 6 6 4 2 4 4 5 3 5 5 5 7 5 5 9 8 7 8 7 6 5 6 7 7 7 7 7 8 8 8 9 8 11 16 21 22 24 28 30 31 32 32 33 34 35 36 36 37 39 41 41 41 41 40 38 35 32 30 31 31 30 29 27 26 25 24 22 21 19 17 16 15 16 15 14 12 11 10 8 10 11 13 13 13 13 13 13 12 12 11 11
4 3 2 4 7 8 7 3 0 1 3 5 4 3 3 5 6 7 4 6 9 9 8 8 6 5 7 8 8 8 7 7 6 8 8 8 8 7 11 16 22 24 24 27 28 29 30 31 33 34 34 35 35 37 38 39 41 41 39 36 35 34 31 29 29 29 29 28 28 27 26 24 23 22 21 18 15 15 15 16 14 12 10 8 9 12 13 14 14 14 14 14 13 13 13 12 11
6 3 3 8 7 6 4 2 2 0 2 5 4 3 1 5 6 6 4 5 8 8 8 8 6 7 9 10 9 9 8 6 6 8 8 8 10 10 13 17 21 24 25 28 29 29 30 31 33 33 33 34 34 36 36 36 37 38 36 33 31 30 29 30 30 29 29 27 27 26 25 24 23 22 22 20 18 17 17 16 14 12 9 8 10 13 14 14 14 14 14 14 13 13 13 12 12
5 5 8 6 1 1 1 3 2 2 2 4 3 1 2 5 6 5 3 4 8 9 7 6 6 9 11 11 10 10 9 7 6 7 7 9 14 14 14 17 19 22 25 27 28 29 29 30 31 31 32 32 33 35 35 34 34 34 33 32 31 30 29 30 30 29 28 27 27 26 25 24 23 23 22 21 20 19 18 16 15 12 10 10 11 13 13 13 13 13 13 13 12 12 12 12 12
4 6 5 4 4 3 2 2 2 4 2 5 4 3 1 3 6 4 2 6 9 9 8 8 9 11 13 12 9 10 10 8 7 7 7 11 16 15 14 17 17 20 23 25 25 26 28 30 31 31 31 32 33 34 34 33 33 34 33 32 33 32 33 33 32 30 29 29 28 26 25 24 23 22 21 21 20 19 18 17 15 12 10 11 12 13 12 12 12 12 12 12 11 11 11 12 12
3 4 3 5 5 2 3 4 4 3 4 5 4 4 2 2 6 5 6 8 7 7 9 12 13 13 14 12 10 10 10 8 8 7 7 8 11 11 13 16 16 19 22 23 24 25 27 29 30 30 29 31 33 34 34 33 33 33 32 32 32 33 35 36 35 33 33 32 30 28 27 25 24 22 21 21 20 19 19 17 15 13 12 13 13 12 11 11 12 12 11 11 11 11 11 11 11
5 5 6 5 5 4 4 4 2 1 4 2 5 3 1 4 8 9 10 9 6 5 7 10 14 15 14 12 11 10 8 8 7 6 7 6 5 7 11 16 17 19 22 23 24 25 26 27 29 29 28 30 32 33 33 32 32 32 31 31 32 32 34 35 34 34 34 33 31 30 29 27 25 23 23 22 21 20 19 17 16 15 14 14 13 12 12 11 12 11 11 11 11 10 10 10 9
5 3 4 3 2 5 5 4 3 3 5 2 4 3 2 5 7 7 6 5 4 5 8 10 13 14 13 12 11 10 8 6 6 6 6 5 4 6 11 16 18 19 21 23 24 25 25 25 27 27 26 28 30 31 31 30 30 30 30 30 31 31 32 33 32 33 34 33 32 31 29 26 24 23 23 22 21 20 19 17 17 16 16 14 13 13 12 11 12 11 11 11 10 10 9 8 8
2 3 3 2 3 1 3 3 2 5 6 4 2 2 2 4 6 4 1 3 4 5 9 11 12 12 12 12 11 10 8 6 6 6 5 5 4 6 11 15 18 20 22 22 23 24 25 25 26 26 25 26 27 28 29 28 28 28 28 28 29 30 31 30 31 32 32 32 31 30 27 24 22 21 21 20 20 20 19 18 18 17 16 15 13 12 12 12 13 12 11 11 10 9 9 8 8
1 3 4 1 2 4 2 4 4 3 5 5 2 3 4 5 7 6 4 5 7 8 10 13 14 13 12 11 10 10 9 7 6 5 4 5 3 8 12 13 16 19 21 22 22 24 25 25 25 25 25 26 27 27 27 27 27 27 27 28 29 29 29 29 29 30 30 30 30 28 25 23 21 20 20 19 19 19 19 18 18 17 16 15 14 13 13 13 13 12 12 12 11 10 9 8 8
0 2 1 2 2 5 2 3 2 2 2 4 3 4 5 4 6 5 4 8 11 10 11 13 14 14 12 10 10 9 8 8 7 4 3 4 2 10 13 13 15 17 19 21 22 23 25 25 25 24 23 24 25 26 26 25 26 26 27 27 28 29 29 30 30 29 29 29 28 26 24 22 21 20 19 18 18 18 18 18 17 16 17 16 15 15 14 13 13 13 13 12 11 10 9 9 8
3 1 2 1 2 4 3 1 4 4 1 4 4 6 7 5 3 3 7 13 15 13 13 14 15 14 12 11 11 9 8 6 7 6 3 2 3 10 13 14 16 18 18 18 19 20 21 23 24 23 23 24 24 25 25 25 26 27 27 27 28 28 28 29 28 28 28 29 28 26 24 22 20 19 18 18 18 18 17 16 16 16 16 15 15 15 14 14 14 14 13 13 12 11 10 9 8
3 3 3 2 2 1 1 1 2 3 4 6 5 6 6 2 3 5 10 14 17 16 14 16 18 16 12 11 11 10 8 5 5 6 4 3 5 9 14 15 15 17 18 17 17 17 18 20 21 22 23 24 24 24 24 24 25 26 27 27 27 27 27 27 27 27 28 28 28 26 24 21 19 18 18 18 18 18 17 16 15 15 16 16 16 16 15 15 14 14 14 14 13 11 10 9 8
2 2 2 2 3 3 1 0 1 1 3 5 5 6 5 4 4 4 8 11 14 15 13 14 17 15 10 10 10 9 7 4 4 6 5 4 6 10 16 17 16 17 19 18 17 16 18 19 20 20 21 21 22 23 23 23 24 24 25 25 25 26 26 27 27 27 28 28 27 25 23 20 19 18 18 18 19 18 17 15 15 15 16 17 17 16 16 15 15 16 16 14 13 12 11 10 10
1 2 1 1 1 0 1 1 2 3 1 2 3 6 6 6 4 1 3 8 9 9 9 10 13 13 11 10 10 8 4 3 4 5 5 4 6 12 16 17 17 18 19 19 18 17 17 18 19 19 20 20 21 22 23 23 24 24 24 24 25 25 26 26 27 27 27 27 27 24 21 19 18 17 18 19 19 18 16 15 15 15 17 18 18 17 16 16 16 16 16 15 14 14 13 12 12
4 3 3 2 1 1 1 3 2 2 3 3 1 5 8 7 3 3 0 5 5 4 5 9 12 12 11 10 10 8 3 4 4 5 5 3 6 12 15 15 16 17 17 18 17 17 17 18 18 18 19 20 21 22 23 23 24 24 23 24 24 24 25 26 26 27 27 27 26 23 21 19 17 17 18 18 19 18 17 16 15 15 17 18 18 16 16 16 16 17 16 16 16 15 15 15 14
Wind_Direction
333 345 352 350 349 11 12 41 86 323 82 271 261 200 258 234 244 250 273 258 167 258 201 150 139 135 128 182 183 175 190 190 175 149 217 245 158 167 169 175 168 165 162 160 166 165 164 164 160 162 162 160 158 158 157 155 154 150 150 148 149 148 144 144 141 141 139 136 137 137 136 135 133 130 130 128 126 123 120 118 118 116 115 114 112 111 108 105 103 103 104 101 99 97 92 89 88
340 353 14 51 37 43 310 63 109 324 49 273 269 187 265 308 247 238 240 210 310 289 17 119 132 110 77 52 139 146 216 207 169 155 236 150 148 169 171 175 169 165 163 161 167 165 168 170 163 163 162 161 160 160 158 153 152 152 151 149 148 147 147 144 142 143 140 138 138 138 137 137 134 132 132 127 125 123 121 120 118 118 117 116 113 111 109 107 105 104 104 102 100 97 94 91 90
347 5 68 111 45 35 51 44 97 115 129 246 279 241 263 341 232 259 285 323 318 341 64 94 122 113 94 47 155 167 222 204 161 153 121 156 158 175 176 176 171 167 164 163 169 170 172 172 166 164 163 164 162 160 158 155 154 152 151 151 150 149 149 146 145 144 141 143 141 140 139 138 136 133 133 127 124 125 125 123 121 121 118 117 115 114 112 110 107 105 105 104 102 98 95 93 93
351 25 133 144 52 28 61 36 143 139 193 228 275 275 278 304 300 320 317 308 297 149 121 132 145 223 150 196 188 231 232 222 181 161 147 178 182 177 176 176 171 167 164 167 172 173 172 168 166 166 165 164 163 161 160 159 159 155 154 154 152 152 150 147 149 146 143 144 142 142 140 139 137 132 131 129 129 128 127 125 123 122 119 118 116 116 114 111 108 107 108 106 103 99 97 96 96
7 59 122 108 77 29 91 72 121 145 215 185 235 277 346 306 327 334 309 306 285 197 186 160 213 294 171 218 172 211 209 169 182 172 165 186 191 175 175 176 171 167 167 170 172 170 168 167 167 167 165 164 164 162 162 163 162 159 159 158 154 153 150 148 149 147 144 145 143 143 142 141 139 132 130 132 134 130 128 127 125 123 120 119 117 117 114 113 111 110 109 107 104 99 100 98 97
73 82 61 64 83 130 120 233 198 211 231 177 223 253 17 325 333 322 304 306 286 220 197 172 200 112 224 253 197 224 197 116 160 181 183 182 187 175 174 175 171 170 169 170 170 168 168 169 170 169 165 165 167 164 164 165 163 162 162 159 156 155 151 150 149 148 148 147 145 145 144 142 141 135 132 135 134 131 131 128 126 124 121 120 118 118 116 116 115 112 111 109 107 102 101 100 99
104 86 35 64 59 24 120 223 221 233 252 185 215 291 331 337 333 318 319 325 312 260 209 206 163 111 234 256 213 241 206 144 132 184 195 179 179 174 172 173 171 171 170 171 172 170 171 173 172 169 166 168 169 166 166 164 163 163 162 159 158 157 152 151 152 151 150 149 148 146 144 142 142 138 134 137 137 133 132 129 127 125 122 122 121 121 120 119 116 115 114 111 109 105 103 103 102
78 67 17 92 84 2 110 253 250 214 257 233 246 302 341 343 332 321 327 327 307 312 269 234 196 198 264 311 231 262 242 204 129 190 189 174 174 173 173 173 171 172 173 174 173 172 174 175 173 170 168 169 168 166 166 165 165 164 163 161 159 159 155 154 155 152 151 151 149 147 146 145 144 140 136 139 139 135 133 131 128 126 125 125 123 123 122 120 118 116 115 114 112 107 107 106 103
59 45 106 93 135 331 333 277 273 236 263 288 292 297 351 333 322 330 325 311 305 314 289 252 190 214 289 339 262 292 314 216 193 195 184 177 175 173 174 175 176 174 174 176 175 174 174 175 173 170 169 168 167 167 167 167 167 166 166 163 161 160 158 157 156 153 154 153 150 149 146 146 145 141 140 141 140 137 134 133 130 128 128 126 125 124 124 122 119 118 117 117 113 111 111 107 104
35 35 136 85 102 274 303 265 252 270 261 275 291 282 329 325 317 356 340 312 312 313 300 291 179 209 326 267 272 299 303 231 191 186 185 182 176 174 176 178 180 177 175 176 176 176 175 175 174 172 171 170 169 169 168 169 168 167 169 166 164 162 160 160 157 155 156 154 152 151 149 148 147 145 144 143 141 139 137 134 132 130 129 127 127 126 125 123 120 120 119 118 114 114 112 107 105
29 1 98 99 82 232 258 253 261 277 284 310 303 286 334 320 320 360 342 319 322 325 318 357 103 285 333 263 273 306 305 225 192 184 183 181 177 176 177 179 181 179 177 176 176 177 175 176 176 174 174 173 171 171 170 170 168 168 170 168 166 164 162 162 160 157 157 155 154 154 152 151 150 149 148 146 143 142 140 137 134 132 131 128 128 127 126 124 122 121 119 118 117 114 110 109 106
69 345 50 109 183 214 229 258 281 280 302 323 300 325 356 329 360 353 329 320 322 326 322 9 350 294 323 275 266 314 323 219 201 190 184 179 177 177 177 178 179 179 178 178 178 178 177 176 177 177 177 176 173 172 171 171 169 169 169 168 168 166 164 166 162 160 159 156 157 155 153 153 152 151 149 148 146 144 142 139 136 133 131 130 129 128 127 125 122 122 120 118 117 113 111 110 107
108 129 86 150 203 186 231 264 277 301 312 287 250 309 347 355 26 309 303 308 311 333 328 336 315 255 257 270 282 330 333 234 211 193 184 178 176 176 176 177 177 178 178 179 178 178 179 179 179 179 179 177 175 174 173 171 170 170 170 169 170 168 166 167 162 161 160 157 159 157 155 155 154 153 151 150 149 146 143 140 137 134 132 131 130 129 128 126 124 123 120 118 117 113 112 110 109
131 149 112 182 258 120 211 259 287 324 282 265 274 317 330 330 34 291 335 339 313 275 308 306 235 202 240 309 314 345 342 255 215 194 183 178 176 176 176 177 177 177 178 179 179 179 181 181 180 180 179 177 176 177 175 173 172 171 172 170 170 170 168 167 164 162 161 159 159 157 157 156 155 155 152 152 152 149 144 141 138 135 133 131 130 129 128 126 125 123 120 119 116 112 112 114 118
125 142 86 140 330 353 221 225 260 72 257 266 323 326 320 260 359 351 81 4 295 260 322 310 152 248 230 341 280 299 322 255 209 192 181 177 176 176 178 177 177 178 178 179 179 181 183 182 180 180 180 178 178 178 176 176 176 173 173 174 171 172 172 167 165 165 163 161 160 158 157 154 157 157 154 158 158 151 145 143 140 137 134 132 131 128 128 127 125 124 122 118 114 117 122 127 130
99 113 64 68 297 319 235 212 181 19 261 250 294 344 338 285 341 343 226 173 275 306 360 303 311 338 219 226 257 301 308 236 202 189 178 176 176 175 177 177 179 180 180 180 180 182 184 184 182 182 182 181 181 179 177 178 177 174 175 177 174 173 175 169 166 169 167 165 165 164 161 157 158 160 158 161 160 153 148 146 142 139 136 133 132 130 128 127 125 124 121 119 122 131 135 137 135
56 82 66 324 248 206 220 205 200 226 263 266 319 19 21 296 310 285 271 185 248 299 324 272 270 223 204 250 299 313 299 206 192 183 175 173 174 174 176 178 179 181 182 183 182 182 184 187 185 182 183 183 182 179 179 178 177 175 176 176 174 174 175 171 170 171 167 166 168 168 168 165 162 165 165 161 159 157 152 149 144 140 137 135 134 130 128 126 126 124 120 130 142 146 144 140 137
51 85 91 252 210 194 198 191 202 197 262 275 322 13 56 301 310 321 317 294 298 309 296 274 279 258 222 257 328 330 247 191 183 177 177 176 175 175 177 179 180 182 184 185 185 184 184 186 186 184 184 184 182 180 181 180 178 178 177 176 175 175 174 173 173 172 169 169 168 166 167 168 168 170 170 165 163 161 155 151 148 143 140 137 135 131 130 127 125 124 128 147 154 144 144 138 134
78 118 105 236 205 215 209 198 225 215 257 275 293 302 182 285 297 346 322 302 333 324 295 290 296 279 251 286 348 354 223 193 180 186 194 187 185 183 182 183 183 184 185 187 187 186 186 186 187 187 185 184 183 182 184 185 183 182 181 180 179 177 176 176 175 176 177 175 171 167 168 170 172 171 169 169 166 160 155 153 151 149 146 142 138 134 131 128 130 139 147 154 144 135 139 133 129
113 120 126 245 220 250 250 231 247 238 264 295 286 308 333 271 267 345 314 304 313 294 279 284 284 286 293 315 345 352 285 214 191 209 210 196 194 191 188 188 187 189 188 187 186 186 187 187 188 188 187 184 183 183 184 185 184 186 186 186 186 181 179 180 181 183 183 181 176 173 174 175 174 172 171 172 168 161 160 160 159 158 156 151 149 147 146 148 153 158 155 148 141 139 139 131 125
119 143 185 231 208 282 264 237 255 258 259 267 281 329 310 279 226 253 305 313 296 270 257 248 264 286 306 319 335 342 310 267 205 217 232 213 206 200 196 196 195 195 189 186 185 187 188 189 188 188 187 185 185 185 184 183 184 187 189 189 190 187 185 185 187 186 184 186 184 179 180 178 174 173 173 173 170 169 169 167 167 165 162 160 162 164 164 167 165 158 154 150 146 143 140 128 115
31 231 188 221 193 265 269 257 264 251 275 280 292 309 294 297 280 222 197 247 262 261 260 239 246 270 284 307 330 335 314 293 229 215 233 231 230 222 212 208 206 198 188 186 187 188 188 189 190 189 188 186 187 187 185 185 186 188 187 187 189 189 189 188 187 187 187 190 190 184 184 182 178 177 174 173 173 174 175 173 172 171 168 167 172 176 170 166 161 157 158 156 150 146 140 127 112
343 287 295 248 191 220 270 304 272 226 297 282 272 288 303 325 296 230 199 233 245 257 272 283 273 271 281 290 302 304 293 295 279 240 232 232 232 227 220 212 211 201 188 189 190 189 188 190 192 191 188 186 187 187 185 186 189 189 186 185 187 188 189 188 187 188 189 191 190 187 189 189 185 181 177 176 175 176 178 178 178 177 175 175 179 184 175 163 161 160 161 159 154 149 141 128 118
129 260 310 290 199 232 260 277 277 269 267 263 273 320 297 283 288 301 234 245 249 262 278 289 284 288 292 282 268 266 261 273 280 279 271 258 246 234 226 215 212 204 192 191 192 191 191 191 192 191 190 188 187 186 186 186 188 187 185 185 187 187 188 187 187 188 189 190 190 191 193 193 190 185 181 181 180 178 180 182 184 184 184 183 184 190 185 168 164 163 164 163 158 154 145 131 121
132 217 285 299 265 261 270 281 282 278 266 267 289 287 272 253 265 297 263 261 258 261 280 285 289 300 292 276 267 261 259 264 271 278 280 274 270 262 244 227 222 212 199 195 195 195 194 193 192 191 190 189 188 186 186 185 185 186 185 185 185 185 187 187 188 189 191 193 192 195 198 196 194 192 188 186 185 184 186 187 189 190 190 190 190 193 194 181 170 165 165 164 161 158 149 133 122
184 216 271 280 282 282 282 280 280 277 267 270 269 269 272 257 260 270 256 261 274 272 286 303 319 303 286 279 271 257 254 258 260 267 273 272 269 272 259 238 230 221 210 204 198 197 196 194 191 190 191 190 189 188 186 186 187 190 190 190 188 187 189 190 191 192 194 196 195 198 202 200 199 198 195 193 191 190 191 192 194 194 194 196 197 196 195 192 180 169 166 166 163 159 150 134 123
198 235 269 270 281 287 275 262 280 290 259 187 224 269 279 277 318 274 256 247 339 346 319 320 323 286 284 285 278 265 247 253 255 261 271 273 263 257 257 248 239 226 217 213 203 197 197 194 190 190 193 192 190 190 188 188 191 193 193 193 193 194 195 195 195 196 197 198 199 201 202 203 204 203 200 198 197 196 196 196 197 197 196 197 198 196 191 189 184 172 167 165 162 160 154 139 127
226 279 286 288 301 297 305 296 303 337 302 190 200 265 274 249 181 245 258 281 49 357 317 312 303 280 281 279 283 281 255 255 260 262 259 263 268 257 249 247 245 232 218 217 210 204 199 195 192 192 192 191 190 190 188 189 192 193 194 194 195 197 198 197 197 198 198 198 200 202 202 204 207 207 205 201 200 201 199 197 196 196 197 194 191 192 188 182 178 170 163 163 162 164 162 150 140
292 36 337 310 344 334 337 8 304 355 346 183 182 285 280 196 224 248 264 326 8 342 316 314 309 294 291 280 281 279 271 270 263 252 248 255 274 272 258 250 242 235 230 221 212 210 204 199 194 192 190 191 191 190 188 188 190 191 193 195 196 197 197 198 198 197 197 199 201 203 204 206 209 209 206 202 201 200 196 194 193 192 193 191 186 187 187 178 175 170 164 163 165 168 171 162 152
273 45 44 328 357 338 321 353 320 346 343 194 48 303 282 238 249 266 286 351 349 334 316 311 307 300 298 287 284 276 275 276 261 255 256 259 275 276 267 261 246 237 240 240 238 228 213 204 196 192 190 190 189 188 187 187 188 190 192 195 195 196 197 198 198 198 199 201 204 205 206 210 212 211 208 203 199 196 194 192 192 191 189 189 186 184 184 176 174 173 167 166 167 170 173 166 159
318 350 56 30 360 291 299 325 332 349 337 21 48 255 271 277 275 278 298 12 357 324 303 296 296 296 297 291 287 282 274 267 259 260 262 266 277 277 268 264 250 238 240 243 242 240 233 212 196 191 190 188 187 188 187 186 187 188 190 193 194 195 196 197 198 199 201 202 203 203 205 212 212 210 207 203 197 194 194 194 193 191 187 187 184 180 181 179 176 176 173 171 167 167 168 160 154
20 360 338 356 348 286 311 315 309 334 298 24 88 244 276 278 274 278 298 350 335 312 298 291 292 292 294 291 284 281 278 272 265 263 266 272 277 275 267 262 251 238 235 235 232 230 232 220 200 192 188 186 186 187 186 186 187 188 190 193 193 194 195 196 197 196 196 197 199 200 203 206 206 205 204 202 200 197 198 198 196 191 187 185 181 178 185 187 184 181 179 180 176 169 167 159 150
8 35 319 302 311 315 321 316 336 53 297 329 190 248 284 279 277 288 300 315 315 304 295 291 293 290 289 289 285 283 284 285 280 275 275 275 274 270 265 261 251 240 235 230 226 221 216 211 205 199 194 190 186 183 183 183 184 187 190 191 191 193 193 194 194 194 192 193 196 198 200 199 199 201 203 204 206 204 203 202 197 193 189 186 184 184 188 192 192 189 181 182 192 182 171 164 152
329 21 318 278 283 301 310 302 328 31 13 279 247 243 272 277 285 295 298 306 308 288 284 286 286 287 288 287 289 287 287 289 286 282 280 276 271 268 264 259 251 242 236 229 221 213 204 201 203 202 196 194 191 183 178 179 181 183 186 188 189 189 189 190 191 194 192 188 190 192 195 198 198 201 205 208 209 209 205 202 200 196 193 191 190 189 189 192 194 199 193 183 191 198 184 173 162
276 306 307 298 287 254 271 277 311 13 331 278 279 269 274 279 287 294 294 301 294 274 276 281 279 284 288 291 292 287 290 287 283 286 288 281 273 268 262 256 248 239 233 223 212 207 204 200 198 195 190 187 188 184 179 178 178 178 179 182 185 185 186 187 189 193 190 185 185 186 191 199 202 204 209 212 210 208 202 199 202 198 195 193 191 190 190 193 195 201 204 193 188 194 195 188 178
221 254 255 284 292 272 265 268 284 351 310 280 276 274 280 288 294 296 297 305 290 274 277 278 277 280 281 290 291 288 292 285 288 297 299 291 277 268 261 252 244 235 227 218 207 202 203 198 189 184 181 181 181 180 180 178 173 174 176 178 181 182 184 185 187 191 189 186 186 184 188 195 201 207 214 215 208 204 200 198 198 194 191 192 192 190 190 197 199 200 203 201 194 189 190 195 197
186 226 243 263 281 284 277 270 277 360 328 271 266 283 284 287 291 289 294 310 301 282 281 277 275 277 276 285 286 288 291 285 293 302 308 303 282 267 258 248 241 229 220 214 202 198 198 191 183 177 176 179 179 178 180 181 176 174 175 177 178 180 182 184 185 187 187 187 187 185 187 190 196 205 213 213 205 198 196 193 191 190 192 195 194 190 195 206 206 203 203 203 202 197 192 194 199
162 211 263 282 264 268 279 277 279 29 16 286 293 303 286 284 288 285 290 305 290 273 272 273 273 279 282 281 277 280 287 291 298 303 310 313 294 267 253 241 230 214 204 200 194 193 191 185 182 178 177 179 181 182 181 182 181 179 177 177 178 178 181 185 184 184 185 187 188 187 187 188 192 196 201 205 201 196 193 190 191 195 199 198 197 195 208 221 217 212 209 205 204 205 203 197 196
194 200 246 291 269 275 287 275 156 18 347 297 317 311 287 286 282 278 275 261 261 257 249 252 264 279 282 277 278 288 297 299 300 298 306 315 308 276 249 231 219 203 195 192 188 187 184 179 179 179 179 180 182 182 179 179 180 180 178 176 176 176 178 183 183 182 184 186 189 189 188 189 192 195 196 197 197 193 191 193 195 201 202 199 201 204 218 227 224 220 216 214 209 205 207 206 204
204 207 246 280 292 332 297 288 345 318 276 262 298 288 281 290 287 283 272 244 257 266 253 246 244 249 259 269 283 291 296 295 296 296 298 312 313 283 239 221 210 195 186 185 182 180 177 176 178 179 179 179 180 179 177 177 175 175 174 174 176 175 174 178 180 182 184 186 189 189 189 190 192 195 196 195 195 191 191 198 202 204 204 204 208 210 225 232 228 224 220 218 215 208 209 210 211
257 216 210 248 279 248 246 294 327 323 301 289 313 303 285 286 290 289 282 278 288 285 284 277 261 249 257 277 292 285 281 281 286 292 292 305 308 279 234 217 203 187 181 181 181 180 178 179 181 180 177 177 178 177 178 178 174 170 167 166 170 170 170 175 179 182 186 189 191 191 192 191 191 192 194 197 199 197 196 201 205 205 202 207 214 216 231 238 232 228 224 221 222 219 220 220 218
308 242 202 222 269 266 261 305 331 343 345 350 6 353 303 269 262 274 291 326 306 297 302 282 275 280 281 294 302 294 284 277 273 279 285 295 297 277 241 217 197 184 183 184 184 184 183 181 180 177 174 175 176 176 178 179 176 173 171 170 171 169 170 177 182 184 187 191 193 194 195 194 192 192 194 198 202 201 199 199 199 197 195 199 215 226 231 238 234 229 227 226 228 228 230 232 230
323 267 191 215 261 276 288 312 342 355 296 318 51 47 285 293 286 267 271 299 291 294 295 279 280 290 294 306 306 300 297 292 283 280 281 288 291 274 242 219 195 186 188 185 184 184 182 180 177 175 174 175 175 175 177 179 177 177 179 179 177 175 174 178 184 186 187 190 193 194 194 194 194 193 193 194 198 200 196 194 194 194 194 198 218 231 231 235 236 232 228 227 229 230 231 236 242
287 239 132 282 284 284 289 297 232 240 287 318 34 87 260 294 285 261 273 301 293 292 286 283 286 288 302 314 308 302 297 293 293 292 288 288 288 262 238 220 196 190 188 181 179 180 179 178 176 175 174 174 176 177 178 180 180 179 180 179 177 177 178 178 182 185 187 190 191 192 192 192 192 192 190 189 191 198 196 193 195 194 196 204 223 234 235 234 234 232 227 225 227 228 230 240 250
262 256 310 292 286 282 269 175 194 347 3 318 339 47 296 273 270 273 291 296 294 295 291 292 296 302 314 315 310 310 300 290 284 283 287 292 288 267 240 220 199 189 185 180 178 178 178 177 176 175 174 174 176 178 179 180 181 179 178 177 174 176 179 179 181 184 187 188 187 189 191 191 190 189 189 188 189 197 199 194 193 192 195 211 228 235 235 232 231 230 229 229 232 234 235 240 247
275 306 307 299 27 42 89 120 135 60 38 272 262 37 349 280 277 299 314 299 305 310 304 297 301 316 324 318 314 312 303 299 284 272 281 287 288 275 241 220 201 185 182 180 177 176 175 174 174 173 174 175 177 180 180 181 182 181 178 177 174 173 176 178 178 182 185 186 186 187 189 190 191 191 191 191 192 196 197 192 187 186 191 210 228 234 231 230 229 229 232 235 237 239 240 239 240
320 347 320 338 37 56 68 79 90 71 320 255 212 157 77 300 283 284 291 300 312 319 314 309 314 328 328 320 316 309 303 306 295 282 284 285 290 279 235 212 195 178 176 175 172 171 171 171 172 173 175 177 179 181 181 182 184 183 181 179 177 176 177 178 178 179 182 184 185 187 190 192 194 195 195 195 196 196 194 189 184 183 191 210 223 230 231 231 231 230 231 232 234 236 236 237 238
17 20 5 356 344 7 30 360 38 57 283 251 193 180 150 230 271 282 280 289 309 322 316 315 321 329 326 318 316 309 303 303 295 290 291 289 294 273 219 192 178 167 165 167 167 168 169 170 170 170 173 177 179 181 182 184 184 184 184 181 180 180 181 182 181 180 183 184 185 188 192 194 195 197 198 198 197 195 193 188 183 181 194 213 220 224 227 228 227 227 228 230 233 234 232 233 237
33 24 24 11 341 1 8 341 3 281 270 218 169 205 229 231 258 277 285 299 326 318 302 311 321 327 324 316 315 312 306 299 293 295 293 287 286 254 199 167 158 157 158 162 164 166 168 170 170 169 172 176 178 179 182 184 184 184 184 183 183 184 185 185 185 184 186 186 187 191 193 194 196 197 199 201 199 197 195 190 186 186 195 209 217 220 222 222 222 221 224 229 234 235 234 233 238
27 39 44 43 27 9 334 306 320 286 279 258 176 190 278 282 270 260 271 304 325 310 309 318 322 324 322 316 314 313 308 301 295 297 297 283 263 235 181 156 151 153 156 159 161 165 168 170 172 170 170 174 176 178 181 182 183 183 183 183 185 187 188 188 188 189 189 188 191 195 196 197 199 200 201 202 200 198 197 193 192 193 196 204 213 219 223 223 222 220 221 227 233 235 235 234 235
53 137 118 97 128 111 278 254 267 290 296 295 230 183 221 275 284 279 327 328 316 321 328 332 328 324 323 319 320 320 314 312 307 301 305 291 251 196 164 155 152 153 156 157 159 164 167 170 174 172 169 173 176 177 180 181 182 182 182 185 188 190 191 190 191 192 191 191 195 197 198 199 202 203 205 204 202 200 199 198 198 199 200 206 215 221 224 224 222 221 222 225 229 231 231 231 231
13 125 100 11 185 156 207 221 213 271 312 298 264 230 219 233 279 309 15 342 331 339 341 345 338 329 329 324 324 325 316 312 311 304 308 298 229 156 150 151 151 152 155 157 160 165 167 170 174 175 174 175 176 177 180 182 182 182 184 187 191 192 193 192 193 194 193 195 199 199 199 201 203 206 207 205 203 201 200 201 201 202 203 209 219 224 225 224 223 222 222 223 225 225 228 228 226
76 65 92 265 168 128 133 272 284 34 340 284 289 286 284 298 301 318 359 331 336 348 346 349 340 327 330 329 323 322 315 314 320 316 306 304 152 138 141 144 144 147 153 159 164 168 169 170 172 174 174 174 176 178 180 182 182 182 185 189 193 195 195 196 196 196 195 198 201 200 200 203 205 208 209 207 205 203 202 203 204 205 206 210 218 223 225 225 223 223 223 223 224 225 226 227 224
102 93 224 230 71 87 98 306 336 26 271 273 302 292 299 335 317 317 347 337 341 349 347 349 342 334 337 334 327 321 313 320 338 339 325 339 105 126 129 134 144 149 153 158 163 166 167 168 171 172 173 174 177 180 182 184 185 184 187 191 195 197 196 197 199 198 198 199 200 199 201 204 207 210 211 210 207 204 203 205 208 209 210 212 216 219 223 224 222 222 223 223 223 225 227 229 228
95 154 173 101 58 319 5 21 333 348 309 292 293 285 286 274 274 325 348 343 342 343 348 352 343 337 336 332 328 323 317 329 1 355 350 42 77 109 117 122 134 141 146 150 154 159 162 165 171 173 176 177 179 182 185 187 187 186 189 193 195 197 197 199 200 200 201 202 200 201 202 204 209 212 212 211 208 206 205 205 208 212 214 216 217 218 221 222 222 222 223 224 224 228 231 232 234
40 73 55 72 149 184 217 120 156 159 301 303 307 306 292 242 242 327 345 339 340 339 345 350 340 331 329 329 325 317 318 343 17 11 7 36 66 94 112 120 128 134 140 147 151 157 160 164 170 173 176 178 179 184 186 187 188 188 189 193 195 197 198 200 201 203 205 205 203 202 202 205 212 215 214 211 208 207 207 206 208 212 216 218 218 219 220 220 222 224 224 225 227 230 232 233 234
105 61 19 297 168 107 266 237 141 134 193 288 316 306 290 268 237 154 341 327 335 337 336 338 335 330 325 327 323 313 326 15 20 35 27 19 69 91 104 116 127 133 139 146 151 156 159 164 169 171 176 179 181 185 187 187 189 189 191 194 195 197 198 200 203 205 208 207 204 203 203 207 214 218 217 212 208 209 210 212 215 217 219 222 221 220 221 221 223 226 226 227 228 229 231 232 233
143 155 178 173 139 68 11 302 311 92 162 190 253 291 282 272 231 157 242 315 331 350 339 332 333 333 328 327 326 323 19 65 24 47 53 22 72 94 103 112 123 130 136 143 149 153 157 163 168 174 181 185 186 186 188 189 189 191 193 194 195 196 198 200 203 206 209 209 205 203 204 210 217 221 220 216 212 211 210 213 222 225 224 226 225 223 223 226 227 228 228 228 229 230 231 233 234